Home > Weather > Foochow > Past weeks

Flag for China Past Weather in Foochow, Fujian, China — Yesterday and Last 2 Weeks

Now
73 °F

Clear.


Feels Like: 74 °F
Forecast: 62 / 90 °F
Wind: 3 mph from Northwest

Location: Fuzhou Airport

Current Time: Aug 30, 2016 at 3:52:12 AM

Latest Report: Aug 30, 2016 at 3:00 AM


Visibility: 5 mi

Pressure: 29.77 "Hg

Humidity: 78%

Dew Point: 66 °F

Location of FoochowLocation

Past Weather in Foochow — Graph

°F

Foochow Temperature Yesterday

Maximum temperature yesterday: 88 °F (at 11:00 AM)
Minimum temperature yesterday: 73 °F (at 11:00 PM)
Average temperature yesterday: 81 °F

High & Low Weather Summary for the Past Weeks

 TemperatureHumidityPressure
High95 °F (Aug 26, 12:00 PM)100% (Aug 28, 4:00 AM)29.80 "Hg (Aug 28, 4:00 AM)
Low72 °F (Aug 30, 12:00 AM)31% (Aug 29, 11:00 AM)29.56 "Hg (Aug 15, 3:00 AM)
Average85 °F77%29.66 "Hg
* Reported Aug 15 2:00 AM — Aug 30 2:00 AM, Foochow, Weather by CustomWeather, © 2016

Note: Actual official high and low records may vary slightly from our data, if they occured in-between our weather recording intervals... More about our weather records

Advertising

Foochow Weather History for the Previous 24 Hours

Scroll right to see more
 ConditionsComfort  
Time TempWeatherWind HumidityBarometerVisibility
2:00 AM
Tue, Aug 30
73 °FClear.1 mph78%29.77 "Hg5 mi
1:00 AM72 °FClear.1 mph83%29.80 "Hg6 mi
12:00 AM72 °FClear.1 mph83%29.80 "Hg10 mi
11:00 PM
Mon, Aug 29
73 °FClear.1 mph78%29.80 "Hg10 mi
10:00 PM77 °FClear.1 mph65%29.80 "Hg10 mi
9:00 PM79 °FPassing clouds.3 mph58%29.80 "HgN/A
8:00 PM79 °FClear.6 mph58%29.77 "Hg10 mi
7:00 PM81 °FClear.6 mph54%29.74 "Hg10 mi
6:00 PM82 °FPassing clouds.6 mph48%29.74 "HgN/A
5:00 PM86 °FSunny.8 mph40%29.74 "Hg10 mi
4:00 PM86 °FSunny.13 mph40%29.74 "Hg10 mi
3:00 PM88 °FSunny.15 mph40%29.74 "Hg10 mi
2:00 PM88 °FSunny.13 mph33%29.74 "Hg10 mi
1:00 PM88 °FSunny.15 mph35%29.77 "Hg10 mi
12:00 PM86 °FSunny.15 mph35%29.77 "Hg10 mi
11:00 AM88 °FSunny.17 mph31%29.80 "Hg10 mi
10:00 AM86 °FPassing clouds.13 mph40%29.80 "HgN/A
9:00 AM84 °FPassing clouds.8 mph45%29.80 "HgN/A
8:00 AM81 °FPassing clouds.6 mph62%29.80 "HgN/A
7:00 AM77 °FPassing clouds.3 mph74%29.80 "HgN/A
6:00 AM75 °FSunny.6 mph78%29.77 "Hg10 mi
5:00 AM75 °FClear.6 mph78%29.77 "Hg6 mi
4:00 AM75 °FClear.6 mph78%29.74 "Hg6 mi
3:00 AM75 °FClear.6 mph83%29.74 "Hg6 mi
Weather by CustomWeather, © 2016

See weather overviewHow to use our weather pages